Regional Weather Roundup
Issued by NWS Charleston, SC

Current Version | Previous Version | Graphics & Text | Print | Product List | Glossary On
Versions: 1 2 3 4 5 6 7 8 9 10 11 12 13 14 15 16 17 18 19 20 21 22 23 24 25 26 27 28 29 30 31 32 33 34 35 36 37 38 39 40 41 42 43 44 45 46 47 48 49 50
000 ASUS42 KCHS 042127 RWRCHS REGIONAL WEATHER ROUNDUP NATIONAL WEATHER SERVICE CHARLESTON SC 500 PM EDT TUE AUG 04 2015 NOTE: "FAIR" INDICATES FEW OR NO CLOUDS BELOW 12,000 FEET WITH NO SIGNIFICANT WEATHER AND/OR OBSTRUCTIONS TO VISIBILITY. NOT ALL STATIONS ARE QUALITY CONTROLLED BY THE NATIONAL WEATHER SERVICE. USE DATA WITH CAUTION...ESPECIALLY DEWPOINT OBSERVATIONS. SCZ027-030-031-034>040-042>050-042200- ...SOUTHEAST SOUTH CAROLINA... CITY SKY/WX TMP DP RH WIND PRES REMARKS N CHARLESTON MOSUNNY 91 73 55 VRB3 29.94F HX 99 WATERFRONT PRK N/A 85 79 82 S8 29.92F HX 98 MOUNT PLEASANT FAIR 90 79 70 SW6 29.94S HX 105 JOHNS ISLAND FAIR 88 79 74 S12 29.94F HX 102 PINOPOLIS NOT AVBL MONCKS CORNER FAIR 91 73 55 CALM 29.93F HX 100 SUMMERVILLE FAIR 91 77 62 CALM 29.94F HX 105 BEAUFORT MCAS MOSUNNY 93 73 52 VRB7 29.95F HX 102 BEAUFORT ARPT FAIR 88 79 74 S9 29.95S HX 102 HILTON HEAD IS MOSUNNY 86 79 79 S8 29.99R HX 99 WALTERBORO CLEAR 95 70 43 SW7 29.94F HX 101 ALLENDALE FAIR 95 72 46 VRB7 29.93R HX 103 ...SOUTHERN MIDLANDS AND PEE DEE... CITY SKY/WX TMP DP RH WIND PRES REMARKS GEORGETOWN NOT AVBL KINGSTREE NOT AVBL ORANGEBURG MOSUNNY 97 65 34 VRB5 29.92F HX 99 BARNWELL FAIR 99 70 39 W5 29.93S HX 105 AIKEN FAIR 95 59 30 SW7 29.97S HX 94 MANNING RAIN 90 70 51 S8 29.92S HX 95 COLUMBIA MOSUNNY 100 61 27 VRB3 29.90F HX 101 SUMTER SUNNY 98 65 33 W7 29.89F HX 100 FLORENCE MOSUNNY 96 70 42 NE9 29.90F HX 102 MYRTLE BEACH NOT AVBL N MYRTLE BEACH MOSUNNY 86 76 71 NW6 29.92R HX 96 $$ GAZ063-065-086>088-099>101-113>116-118-119-134>141-150-042200- ...SOUTHEAST GEORGIA... CITY SKY/WX TMP DP RH WIND PRES REMARKS SAVANNAH ARPT MOSUNNY 92 70 48 CALM 29.96S HX 97 HUNTER AAF SUNNY 91 81 71 VRB7 29.94S HX 110 FORT STEWART MOSUNNY 93 70 46 VRB2 N/A HX 99 STATESBORO SUNNY 95 74 51 CALM 29.96S HX 105 SYLVANIA PTCLDY 97 72 45 W5 29.96R HX 106 CLAXTON NOT AVBL ...CSRA...CENTRAL AND FAR SOUTHEAST GEORGIA... CITY SKY/WX TMP DP RH WIND PRES REMARKS THOMSON MOSUNNY 99 65 32 W3 29.98R HX 103 AUGUSTA-BUSH MOSUNNY 99 62 29 NW5 29.91F HX 100 AUGUSTA-DANIEL MOSUNNY 98 60 28 VRB6 29.94F HX 98 SWAINSBORO FAIR 97 70 41 S7 29.96S HX 103 VIDALIA SUNNY 95 72 46 S5 29.97S HX 103 EASTMAN FAIR 88 70 54 S8 29.99R HX 93 HAZLEHURST FAIR 94 70 44 S6 29.97S HX 100 ALMA PTSUNNY 89 73 59 SW15 29.99R HX 97 WAYCROSS PTSUNNY 83 76 80 S12 30.02S HX 92 JESUP MOCLDY 90 79 70 SW10 29.99R HX 105 BAXLEY FAIR 95 73 49 SW8 29.98R HX 105 BRUNSWICK PTSUNNY 86 73 66 SW14G25 30.00S HX 93 SAINT SIMONS PTSUNNY 86 77 74 SW12 30.00R HX 97 $$ SCZ027-028-034-036>038-045-046-048>050-GAZ119-141-042200- ...LAKE AND SUPPLEMENTAL COASTAL OBSERVATIONS... STATION/POSITION TIME TEMP WIND PRES WAVE SWELL AIR SEA DIR/SP/G HT/PER HT/PER/DIR (UTC) (F) (DEG/KT/KT) (MB) (FT/S) (FT/S/D) UPR LAKE MARION NOT AVBL WINYAH BAY 2000 85 250/ 6 1013.0 LAKE MURRAY 2000 94 180/ 8/ 9 1012.5F ACE BASIN NERRS 2045 90 240/ 2 1015.0S FORT PULASKI 2100 86 85 180/ 8/ 14 1015.5R SAPELO ISLAND 2100 87 160/ 11 1015.0S $$ ANZ835-935-AMZ111-154-330-350-352-354-370-450-454-472-042200- ...C-MAN AND BUOY OBSERVATIONS... STATION/POSITION TIME TEMP WIND PRES WAVE SWELL AIR SEA DIR/SP/G HT/PER HT/PER/DIR (UTC) (F) (DEG/KT/KT) (MB) (FT/S) (FT/S/D) BUOY 41004 2050 81 83 220/ 14/ 16 1014.2R 5/ 6 3/ 6 BUOY 41008 2050 83 84 190/ 10/ 12 1015.8R 3/ 6 2/140/ 6 FOLLY BEACH CMAN 2100 83 210/ 14/ 15 1014.4F CAPERS NEARSHORE 2008 83 220/ 14/ 17 1014.5F FRIPP NEARSHORE 2000 84 210/ 12/ 12 1014.5F STATION/POSITION TIME TEMP WIND PRES WAVE SWELL AIR SEA DIR/SP/G HT/PER HT/PER/DIR (UTC) (F) (DEG/KT/KT) (MB) (FT/S) (FT/S/D) 5E ST. MARYS GA 2021 82 N/A 3/11 FRYING PAN BUOY 2050 81 81 210/ 17/ 19 1014.2F 9/ 8 5/180/ 8 BUOY 41025 2050 78 84 190/ 25/ 31 1016.4R 5/ 6 2/140/11 CAPE LOOKOUT NC 2100 80 200/ 8/ 11 1015.0F BUOY 41002 2050 83 82 200/ 14/ 17 1018.5F 5/ 7 3/260/ 7 BUOY 41010 2020 84 85 200/ 10/ 12 1018.0F ST AUGUSTINE FL 2100 80 78 230/ 8/ 11 1017.4R $$

USA.gov is the U.S. government's official web portal to all federal, state and local government web resources and services.